Regional Weather Roundup
Issued by NWS Albany, NY

Home | Current Version | Previous Version | Text Only | Print | Product List | Glossary On
Versions: 1 2 3 4 5 6 7 8 9 10 11 12 13 14 15 16 17 18 19 20 21 22 23 24 25 26 27 28 29 30 31 32 33 34 35 36 37 38 39 40 41 42 43 44 45 46 47 48 49 50
000
ASUS41 KALY 231410
RWRALY

NEW YORK STATE HOURLY WEATHER ROUNDUP
NATIONAL WEATHER SERVICE ALBANY NY
1000 AM EDT SAT MAY 23 2015

NOTE: "FAIR" INDICATES FEW OR NO CLOUDS BELOW 12,000 FEET WITH NO
SIGNIFICANT WEATHER AND/OR NO OBSTRUCTIONS TO VISIBILITY.

NYZ032-033-038>043-046>054-057>066-NYZ062>081-231500-
EAST


CITY           SKY/WX    TMP DP  RH WIND       PRES   REMARKS
ALBANY         SUNNY     50  21  32 N16G22    30.40R
GLENS FALLS    SUNNY     49  22  34 VRB3      30.36S
POUGHKEEPSIE   SUNNY     51  22  31 W8        30.41R
NEWBURGH       SUNNY     41  28  60 NW7       30.42
MONTGOMERY     SUNNY     52  28  39 N9        30.41R
WHITE PLAINS   SUNNY     52  28  39 NW10      30.40R
ISLIP          MOSUNNY   54  28  36 NW14      30.39R
NEW YORK CITY  MOSUNNY   53  26  35 NW9       30.42R
CENTRAL PARK   SUNNY     53  25  33 NW8       30.44R
$$

NYZ005>009-017-018-044>046-055-056-231500-
CENTRAL


CITY           SKY/WX    TMP DP  RH WIND       PRES   REMARKS
FULTON         SUNNY     50  26  39 VRB6      30.43S
SYRACUSE       SUNNY     49  26  41 W8        30.43R
ROME           SUNNY     47  25  42 W14G20    30.43R
ELMIRA         SUNNY     50  28  42 VRB7      30.44R
BINGHAMTON     SUNNY     45  26  47 NW7       30.41R
MONTICELLO     SUNNY     46  27  46 NW10G18   30.41R
$$

NYZ026>034-041>043-231500-
NORTH


CITY           SKY/WX    TMP DP  RH WIND       PRES   REMARKS
WATERTOWN      SUNNY     49  26  41 SW10G17   30.41R
FORT DRUM      NOT AVBL
MASSENA        SUNNY     49  23  36 W13G20    30.38S
SARANAC LAKE   SUNNY     42  17  36 NW8G16    30.30S
PLATTSBURGH    MOSUNNY   49  21  33 W10G21    30.33S
$$

NYZ001>004-010>016-019>021-231500-
WEST


CITY           SKY/WX    TMP DP  RH WIND       PRES   REMARKS
NIAGARA FALLS  MOSUNNY   52  27  38 SW15      30.43R
BUFFALO        SUNNY     52  24  33 SW13      30.43S
DUNKIRK        SUNNY     53  25  33 CALM      30.45R
JAMESTOWN      SUNNY     48  25  40 SW3       30.44S
WELLSVILLE     SUNNY     48  22  35 VRB5      30.43S
ROCHESTER      SUNNY     51  28  41 SW8       30.43S
PENN YAN       SUNNY     49  28  44 CALM      30.43R
$$

             KEY
       WCI = WIND CHILL INDEX
       VSB = VISIBILITY
       HX  = HEAT INDEX
$$


USA.gov is the U.S. government's official web portal to all federal, state and local government web resources and services.